Time,TemperatureF,DewpointF,PressureIn,WindDirection,WindDirectionDegrees,WindSpeedMPH,WindSpeedGustMPH,Humidity,HourlyPrecipIn,Conditions,Clouds,dailyrainin,SoftwareType,DateUTC
2013-10-03 00:00:00,48.2,47.7,30.22,ENE,62,0.0,0.0,98,0.00,,,0.56,Wunderground v.1.15,2013-10-03 07:00:00,
2013-10-03 00:06:00,48.2,47.7,30.23,ENE,62,0.0,0.0,98,0.00,,,0.00,Wunderground v.1.15,2013-10-03 07:06:00,
2013-10-03 00:15:00,48.2,47.7,30.23,ENE,62,0.0,0.0,98,0.00,,,0.00,Wunderground v.1.15,2013-10-03 07:15:00,
2013-10-03 00:25:00,48.2,47.7,30.23,ENE,62,0.0,0.0,98,0.00,,,0.00,Wunderground v.1.15,2013-10-03 07:25:00,
2013-10-03 00:31:00,48.2,47.7,30.23,ENE,62,0.0,0.0,98,0.00,,,0.00,Wunderground v.1.15,2013-10-03 07:31:00,
2013-10-03 00:40:00,48.0,47.5,30.24,ENE,62,0.0,0.0,98,0.00,,,0.00,Wunderground v.1.15,2013-10-03 07:40:00,
2013-10-03 00:46:00,48.0,47.5,30.24,ENE,62,0.0,0.0,98,0.00,,,0.00,Wunderground v.1.15,2013-10-03 07:46:00,
2013-10-03 00:55:00,48.0,47.5,30.24,ENE,62,0.0,0.0,98,0.00,,,0.00,Wunderground v.1.15,2013-10-03 07:55:00,
2013-10-03 01:10:00,48.0,47.5,30.24,ENE,62,0.0,0.0,98,0.00,,,0.00,Wunderground v.1.15,2013-10-03 08:10:00,
2013-10-03 01:15:00,48.0,47.5,30.24,ENE,62,0.0,0.0,98,0.00,,,0.00,Wunderground v.1.15,2013-10-03 08:15:00,
2013-10-03 01:20:00,48.0,47.5,30.25,ENE,62,0.0,0.0,98,0.00,,,0.00,Wunderground v.1.15,2013-10-03 08:20:00,
2013-10-03 01:26:00,48.0,47.5,30.25,ENE,62,0.0,0.0,98,0.00,,,0.00,Wunderground v.1.15,2013-10-03 08:26:00,
2013-10-03 01:36:00,48.0,47.5,30.25,ENE,62,0.0,0.0,98,0.00,,,0.00,Wunderground v.1.15,2013-10-03 08:36:00,
2013-10-03 01:41:00,48.0,47.5,30.25,ENE,62,0.0,0.0,98,0.00,,,0.00,Wunderground v.1.15,2013-10-03 08:41:00,
2013-10-03 01:50:00,48.0,47.5,30.26,ENE,62,0.0,0.0,98,0.00,,,0.00,Wunderground v.1.15,2013-10-03 08:50:00,
2013-10-03 01:56:00,48.2,47.7,30.26,ENE,62,0.0,0.0,98,0.00,,,0.00,Wunderground v.1.15,2013-10-03 08:56:00,
2013-10-03 02:10:00,48.2,47.7,30.27,ENE,62,0.0,0.0,98,0.00,,,0.01,Wunderground v.1.15,2013-10-03 09:10:00,
2013-10-03 02:16:00,48.2,47.7,30.27,ENE,62,0.0,0.0,98,0.00,,,0.01,Wunderground v.1.15,2013-10-03 09:16:00,
2013-10-03 02:21:00,48.2,47.7,30.27,ENE,62,0.0,0.0,98,0.00,,,0.01,Wunderground v.1.15,2013-10-03 09:21:00,
2013-10-03 02:31:00,48.3,48.0,30.27,ENE,62,0.0,0.0,99,0.00,,,0.01,Wunderground v.1.15,2013-10-03 09:31:00,
2013-10-03 02:40:00,48.3,47.8,30.28,ENE,62,0.0,0.0,98,0.00,,,0.01,Wunderground v.1.15,2013-10-03 09:40:00,
2013-10-03 02:46:00,48.5,48.0,30.28,ENE,62,0.0,0.0,98,0.00,,,0.01,Wunderground v.1.15,2013-10-03 09:46:00,
2013-10-03 02:55:00,48.5,48.0,30.28,ENE,62,0.0,0.0,98,0.00,,,0.01,Wunderground v.1.15,2013-10-03 09:55:00,
2013-10-03 03:01:00,48.5,48.2,30.28,ENE,62,0.0,0.0,99,0.00,,,0.01,Wunderground v.1.15,2013-10-03 10:01:00,
2013-10-03 03:10:00,48.5,48.2,30.28,ENE,62,0.0,0.0,99,0.00,,,0.01,Wunderground v.1.15,2013-10-03 10:10:00,
2013-10-03 03:15:00,48.5,48.2,30.28,ENE,62,0.0,0.0,99,0.00,,,0.01,Wunderground v.1.15,2013-10-03 10:15:00,
2013-10-03 03:21:00,48.5,48.2,30.29,ENE,62,0.0,0.0,99,0.00,,,0.01,Wunderground v.1.15,2013-10-03 10:21:00,
2013-10-03 03:30:00,48.5,48.2,30.29,ENE,62,0.0,0.0,99,0.00,,,0.01,Wunderground v.1.15,2013-10-03 10:30:00,
2013-10-03 03:36:00,48.5,48.2,30.30,ENE,62,0.0,0.0,99,0.00,,,0.01,Wunderground v.1.15,2013-10-03 10:36:00,
2013-10-03 03:45:00,48.6,48.3,30.30,ENE,62,0.0,0.0,99,0.00,,,0.01,Wunderground v.1.15,2013-10-03 10:45:00,
2013-10-03 03:51:00,48.6,48.3,30.30,ENE,62,0.0,0.0,99,0.00,,,0.02,Wunderground v.1.15,2013-10-03 10:51:00,
2013-10-03 04:00:00,48.6,48.3,30.30,ENE,62,0.0,0.0,99,0.09,,,0.03,Wunderground v.1.15,2013-10-03 11:00:00,
2013-10-03 04:10:00,48.6,48.3,30.31,ENE,62,0.0,0.0,99,0.04,,,0.03,Wunderground v.1.15,2013-10-03 11:10:00,
2013-10-03 04:20:00,48.6,48.3,30.31,ENE,62,0.0,0.0,99,0.00,,,0.03,Wunderground v.1.15,2013-10-03 11:20:00,
2013-10-03 04:26:00,48.6,48.3,30.31,ENE,62,0.0,0.0,99,0.00,,,0.03,Wunderground v.1.15,2013-10-03 11:26:00,
2013-10-03 04:35:00,48.6,48.3,30.32,ENE,62,0.0,0.0,99,0.00,,,0.03,Wunderground v.1.15,2013-10-03 11:35:00,
2013-10-03 04:41:00,48.6,48.3,30.32,ENE,62,0.0,0.0,99,0.00,,,0.03,Wunderground v.1.15,2013-10-03 11:41:00,
2013-10-03 04:50:00,48.6,48.3,30.31,ENE,62,0.0,0.0,99,0.00,,,0.03,Wunderground v.1.15,2013-10-03 11:50:00,
2013-10-03 04:55:00,48.6,48.3,30.31,ENE,62,0.0,0.0,99,0.00,,,0.03,Wunderground v.1.15,2013-10-03 11:55:00,
2013-10-03 05:01:00,48.6,48.3,30.31,ENE,62,0.0,0.0,99,0.00,,,0.03,Wunderground v.1.15,2013-10-03 12:01:00,
2013-10-03 05:10:00,48.5,48.2,30.32,ENE,62,0.0,0.0,99,0.00,,,0.03,Wunderground v.1.15,2013-10-03 12:10:00,
2013-10-03 05:15:00,48.5,48.2,30.32,ENE,62,0.0,0.0,99,0.00,,,0.03,Wunderground v.1.15,2013-10-03 12:15:00,
2013-10-03 05:21:00,48.5,48.2,30.32,ENE,62,0.0,0.0,99,0.00,,,0.03,Wunderground v.1.15,2013-10-03 12:21:00,
2013-10-03 05:30:00,48.3,48.0,30.32,ENE,62,0.0,0.0,99,0.00,,,0.03,Wunderground v.1.15,2013-10-03 12:30:00,
2013-10-03 05:36:00,48.3,48.0,30.33,ENE,62,0.0,0.0,99,0.00,,,0.03,Wunderground v.1.15,2013-10-03 12:36:00,
2013-10-03 05:45:00,48.3,48.0,30.33,ENE,62,0.0,0.0,99,0.00,,,0.03,Wunderground v.1.15,2013-10-03 12:45:00,
2013-10-03 05:55:00,48.3,48.0,30.34,ENE,62,0.0,0.0,99,0.00,,,0.03,Wunderground v.1.15,2013-10-03 12:55:00,
2013-10-03 06:01:00,48.5,48.2,30.34,ENE,62,0.0,0.0,99,0.00,,,0.03,Wunderground v.1.15,2013-10-03 13:01:00,
2013-10-03 06:06:00,48.5,48.2,30.35,ENE,62,0.0,0.0,99,0.00,,,0.03,Wunderground v.1.15,2013-10-03 13:06:00,
2013-10-03 06:15:00,48.5,48.2,30.35,ENE,62,0.0,0.0,99,0.00,,,0.03,Wunderground v.1.15,2013-10-03 13:15:00,
2013-10-03 06:21:00,48.5,48.2,30.35,ENE,62,0.0,0.0,99,0.00,,,0.03,Wunderground v.1.15,2013-10-03 13:21:00,
2013-10-03 06:30:00,48.5,48.2,30.35,ENE,62,0.0,0.0,99,0.00,,,0.03,Wunderground v.1.15,2013-10-03 13:30:00,
2013-10-03 06:40:00,48.5,48.2,30.36,ENE,62,0.0,0.0,99,0.00,,,0.03,Wunderground v.1.15,2013-10-03 13:40:00,
2013-10-03 06:46:00,48.3,48.0,30.36,ENE,62,0.0,0.0,99,0.00,,,0.03,Wunderground v.1.15,2013-10-03 13:46:00,
2013-10-03 06:55:00,48.2,47.9,30.36,ENE,62,0.0,0.0,99,0.00,,,0.03,Wunderground v.1.15,2013-10-03 13:55:00,
2013-10-03 07:01:00,48.2,47.9,30.36,ENE,62,0.0,0.0,99,0.00,,,0.03,Wunderground v.1.15,2013-10-03 14:01:00,
2013-10-03 07:06:00,48.2,47.9,30.37,ENE,62,0.0,0.0,99,0.00,,,0.03,Wunderground v.1.15,2013-10-03 14:06:00,
2013-10-03 07:15:00,48.2,47.9,30.37,ENE,62,0.0,0.0,99,0.00,,,0.03,Wunderground v.1.15,2013-10-03 14:15:00,
2013-10-03 07:21:00,48.2,47.9,30.37,ENE,62,0.0,0.0,99,0.00,,,0.03,Wunderground v.1.15,2013-10-03 14:21:00,
2013-10-03 07:30:00,48.2,47.9,30.37,ENE,62,0.0,0.0,99,0.00,,,0.03,Wunderground v.1.15,2013-10-03 14:30:00,
2013-10-03 07:36:00,48.2,47.9,30.38,ENE,62,0.0,0.0,99,0.00,,,0.03,Wunderground v.1.15,2013-10-03 14:36:00,
2013-10-03 07:41:00,48.2,47.9,30.38,ENE,62,0.0,0.0,99,0.00,,,0.03,Wunderground v.1.15,2013-10-03 14:41:00,
2013-10-03 07:50:00,48.3,48.0,30.38,ENE,62,0.0,0.0,99,0.00,,,0.03,Wunderground v.1.15,2013-10-03 14:50:00,
2013-10-03 07:56:00,48.3,48.0,30.38,ENE,62,0.0,0.0,99,0.00,,,0.03,Wunderground v.1.15,2013-10-03 14:56:00,
2013-10-03 08:10:00,48.5,48.2,30.39,ENE,62,0.0,0.0,99,0.00,,,0.03,Wunderground v.1.15,2013-10-03 15:10:00,
2013-10-03 08:15:00,48.6,48.3,30.39,ENE,62,0.0,0.0,99,0.00,,,0.03,Wunderground v.1.15,2013-10-03 15:15:00,
2013-10-03 08:21:00,48.6,48.3,30.39,ENE,62,0.0,0.0,99,0.00,,,0.03,Wunderground v.1.15,2013-10-03 15:21:00,
2013-10-03 08:30:00,48.9,48.6,30.39,ENE,62,0.0,0.0,99,0.00,,,0.03,Wunderground v.1.15,2013-10-03 15:30:00,
2013-10-03 08:35:00,49.1,48.8,30.39,ENE,62,0.0,0.0,99,0.00,,,0.03,Wunderground v.1.15,2013-10-03 15:35:00,
2013-10-03 08:45:00,49.2,48.9,30.39,ENE,62,0.0,0.0,99,0.00,,,0.03,Wunderground v.1.15,2013-10-03 15:45:00,
2013-10-03 08:50:00,49.2,48.9,30.40,ENE,62,0.0,0.0,99,0.00,,,0.03,Wunderground v.1.15,2013-10-03 15:50:00,
2013-10-03 08:56:00,49.1,48.8,30.40,ENE,62,0.0,0.0,99,0.00,,,0.03,Wunderground v.1.15,2013-10-03 15:56:00,
2013-10-03 09:10:00,49.2,48.9,30.40,ENE,62,0.0,0.0,99,0.00,,,0.03,Wunderground v.1.15,2013-10-03 16:10:00,
2013-10-03 09:16:00,49.2,48.9,30.40,ENE,62,0.0,0.0,99,0.00,,,0.03,Wunderground v.1.15,2013-10-03 16:16:00,
2013-10-03 09:25:00,49.4,49.1,30.41,ENE,62,0.0,0.0,99,0.00,,,0.03,Wunderground v.1.15,2013-10-03 16:25:00,
2013-10-03 09:31:00,49.4,49.1,30.41,ENE,62,0.0,0.0,99,0.00,,,0.03,Wunderground v.1.15,2013-10-03 16:31:00,
2013-10-03 09:40:00,49.2,48.9,30.42,ENE,62,0.0,0.0,99,0.00,,,0.03,Wunderground v.1.15,2013-10-03 16:40:00,
2013-10-03 09:46:00,49.2,48.9,30.42,ENE,62,0.0,0.0,99,0.00,,,0.03,Wunderground v.1.15,2013-10-03 16:46:00,
2013-10-03 09:56:00,49.4,49.1,30.42,ENE,62,0.0,0.0,99,0.00,,,0.03,Wunderground v.1.15,2013-10-03 16:56:00,
2013-10-03 10:10:00,49.6,49.3,30.43,ENE,62,0.0,0.0,99,0.00,,,0.03,Wunderground v.1.15,2013-10-03 17:10:00,
2013-10-03 10:15:00,49.8,49.5,30.43,ENE,62,0.0,0.0,99,0.00,,,0.03,Wunderground v.1.15,2013-10-03 17:15:00,
2013-10-03 10:21:00,50.1,49.8,30.43,SW,236,0.0,2.0,99,0.00,,,0.03,Wunderground v.1.15,2013-10-03 17:21:00,
2013-10-03 10:31:00,49.8,49.5,30.43,WSW,240,1.0,1.0,99,0.00,,,0.03,Wunderground v.1.15,2013-10-03 17:31:00,
2013-10-03 10:40:00,50.4,50.1,30.43,WSW,240,0.0,0.0,99,0.00,,,0.03,Wunderground v.1.15,2013-10-03 17:40:00,
2013-10-03 10:46:00,50.5,50.2,30.43,WSW,239,0.0,0.0,99,0.00,,,0.03,Wunderground v.1.15,2013-10-03 17:46:00,
2013-10-03 10:55:00,51.0,50.2,30.43,WSW,240,0.0,1.0,97,0.00,,,0.03,Wunderground v.1.15,2013-10-03 17:55:00,
2013-10-03 11:01:00,51.3,49.9,30.43,WSW,240,0.0,0.0,95,0.00,,,0.03,Wunderground v.1.15,2013-10-03 18:01:00,
2013-10-03 11:06:00,51.6,49.6,30.43,WSW,244,0.0,1.0,93,0.00,,,0.03,Wunderground v.1.15,2013-10-03 18:06:00,
2013-10-03 11:15:00,52.0,49.5,30.43,SW,236,0.0,1.0,91,0.00,,,0.03,Wunderground v.1.15,2013-10-03 18:15:00,
2013-10-03 11:21:00,52.2,49.9,30.44,WSW,239,0.0,1.0,92,0.00,,,0.03,Wunderground v.1.15,2013-10-03 18:21:00,
2013-10-03 11:31:00,52.5,49.9,30.44,WSW,239,0.0,0.0,91,0.00,,,0.03,Wunderground v.1.15,2013-10-03 18:31:00,
2013-10-03 11:40:00,52.9,49.7,30.44,WSW,258,0.0,1.0,89,0.00,,,0.03,Wunderground v.1.15,2013-10-03 18:40:00,
2013-10-03 11:46:00,53.2,50.6,30.44,WSW,258,0.0,1.0,91,0.00,,,0.03,Wunderground v.1.15,2013-10-03 18:46:00,
2013-10-03 11:55:00,53.2,49.1,30.44,WSW,258,0.0,1.0,86,0.00,,,0.03,Wunderground v.1.15,2013-10-03 18:55:00,
2013-10-03 12:01:00,52.9,48.2,30.44,WSW,258,0.0,0.0,84,0.00,,,0.03,Wunderground v.1.15,2013-10-03 19:01:00,
2013-10-03 12:06:00,52.8,49.0,30.45,WSW,258,0.0,1.0,87,0.00,,,0.03,Wunderground v.1.15,2013-10-03 19:06:00,
2013-10-03 12:16:00,52.5,49.0,30.45,WSW,258,0.0,0.0,88,0.00,,,0.03,Wunderground v.1.15,2013-10-03 19:16:00,
2013-10-03 12:25:00,52.5,48.7,30.45,WSW,258,0.0,0.0,87,0.00,,,0.03,Wunderground v.1.15,2013-10-03 19:25:00,
2013-10-03 12:31:00,52.3,48.5,30.45,WSW,248,0.0,0.0,87,0.00,,,0.03,Wunderground v.1.15,2013-10-03 19:31:00,
2013-10-03 12:40:00,52.9,50.0,30.45,SSW,198,0.0,1.0,90,0.00,,,0.03,Wunderground v.1.15,2013-10-03 19:40:00,
2013-10-03 12:46:00,53.2,48.5,30.45,SSE,147,1.0,1.0,84,0.00,,,0.03,Wunderground v.1.15,2013-10-03 19:46:00,
2013-10-03 12:55:00,53.5,48.8,30.45,SSE,148,0.0,1.0,84,0.00,,,0.03,Wunderground v.1.15,2013-10-03 19:55:00,
2013-10-03 13:01:00,53.5,48.5,30.45,SSE,148,0.0,0.0,83,0.00,,,0.03,Wunderground v.1.15,2013-10-03 20:01:00,
2013-10-03 13:06:00,53.6,49.8,30.45,SSE,152,0.0,0.0,87,0.00,,,0.03,Wunderground v.1.15,2013-10-03 20:06:00,
2013-10-03 13:15:00,54.1,50.0,30.45,North,0,1.0,1.0,86,0.00,,,0.03,Wunderground v.1.15,2013-10-03 20:15:00,
2013-10-03 13:21:00,54.2,49.1,30.45,NNW,346,0.0,0.0,83,0.00,,,0.03,Wunderground v.1.15,2013-10-03 20:21:00,
2013-10-03 13:31:00,54.8,48.7,30.45,SE,143,0.0,0.0,80,0.00,,,0.03,Wunderground v.1.15,2013-10-03 20:31:00,
2013-10-03 13:41:00,54.8,48.4,30.45,SW,219,0.0,0.0,79,0.00,,,0.03,Wunderground v.1.15,2013-10-03 20:41:00,
2013-10-03 13:50:00,54.2,48.5,30.46,SSE,152,0.0,0.0,81,0.00,,,0.03,Wunderground v.1.15,2013-10-03 20:50:00,
2013-10-03 14:00:00,53.8,47.4,30.46,SSW,193,0.0,0.0,79,0.00,,,0.03,Wunderground v.1.15,2013-10-03 21:00:00,
2013-10-03 14:11:00,54.5,49.1,30.46,South,191,1.0,1.0,82,0.00,,,0.03,Wunderground v.1.15,2013-10-03 21:11:00,
2013-10-03 14:16:00,55.3,48.2,30.46,WSW,239,0.0,1.0,77,0.00,,,0.03,Wunderground v.1.15,2013-10-03 21:16:00,
2013-10-03 14:26:00,56.3,48.1,30.45,WSW,240,0.0,0.0,74,0.00,,,0.03,Wunderground v.1.15,2013-10-03 21:26:00,
2013-10-03 14:35:00,56.2,48.7,30.45,SW,230,0.0,0.0,76,0.00,,,0.03,Wunderground v.1.15,2013-10-03 21:35:00,
2013-10-03 14:41:00,56.0,48.9,30.45,SE,124,0.0,0.0,77,0.00,,,0.03,Wunderground v.1.15,2013-10-03 21:41:00,
2013-10-03 14:50:00,55.9,49.5,30.45,East,95,0.0,0.0,79,0.00,,,0.03,Wunderground v.1.15,2013-10-03 21:50:00,
2013-10-03 14:56:00,56.2,48.4,30.45,East,79,0.0,0.0,75,0.00,,,0.03,Wunderground v.1.15,2013-10-03 21:56:00,
2013-10-03 15:10:00,56.7,48.9,30.45,North,359,0.0,0.0,75,0.00,,,0.03,Wunderground v.1.15,2013-10-03 22:10:00,
2013-10-03 15:15:00,56.7,49.9,30.45,North,359,0.0,0.0,78,0.00,,,0.03,Wunderground v.1.15,2013-10-03 22:15:00,
2013-10-03 15:21:00,56.6,48.4,30.45,North,359,0.0,0.0,74,0.00,,,0.03,Wunderground v.1.15,2013-10-03 22:21:00,
2013-10-03 15:30:00,56.3,49.2,30.45,North,359,0.0,0.0,77,0.00,,,0.03,Wunderground v.1.15,2013-10-03 22:30:00,
2013-10-03 15:36:00,56.2,49.4,30.46,North,359,0.0,0.0,78,0.00,,,0.03,Wunderground v.1.15,2013-10-03 22:36:00,
2013-10-03 15:46:00,55.9,50.2,30.46,North,359,0.0,0.0,81,0.00,,,0.03,Wunderground v.1.15,2013-10-03 22:46:00,
2013-10-03 15:55:00,55.7,50.6,30.46,North,359,0.0,0.0,83,0.00,,,0.03,Wunderground v.1.15,2013-10-03 22:55:00,
2013-10-03 16:01:00,55.6,50.2,30.46,North,359,0.0,0.0,82,0.00,,,0.03,Wunderground v.1.15,2013-10-03 23:01:00,
2013-10-03 16:06:00,55.6,50.2,30.46,North,359,0.0,0.0,82,0.00,,,0.03,Wunderground v.1.15,2013-10-03 23:06:00,
2013-10-03 16:25:00,55.3,48.2,30.47,North,359,0.0,0.0,77,0.00,,,0.03,Wunderground v.1.15,2013-10-03 23:25:00,
2013-10-03 16:31:00,55.3,48.6,30.47,North,359,0.0,0.0,78,0.00,,,0.03,Wunderground v.1.15,2013-10-03 23:31:00,
2013-10-03 16:40:00,55.4,49.0,30.47,North,359,0.0,0.0,79,0.00,,,0.03,Wunderground v.1.15,2013-10-03 23:40:00,
2013-10-03 16:46:00,55.6,48.5,30.47,ESE,120,0.0,0.0,77,0.00,,,0.03,Wunderground v.1.15,2013-10-03 23:46:00,
2013-10-03 16:55:00,55.9,47.7,30.47,SE,134,1.0,4.0,74,0.00,,,0.03,Wunderground v.1.15,2013-10-03 23:55:00,
2013-10-03 17:00:00,55.9,48.1,30.47,SE,136,0.0,0.0,75,0.00,,,0.03,Wunderground v.1.15,2013-10-04 00:00:00,
2013-10-03 17:11:00,55.6,47.4,30.47,SE,136,0.0,0.0,74,0.00,,,0.03,Wunderground v.1.15,2013-10-04 00:11:00,
2013-10-03 17:21:00,55.6,49.2,30.47,SE,136,0.0,0.0,79,0.00,,,0.03,Wunderground v.1.15,2013-10-04 00:21:00,
2013-10-03 17:26:00,55.4,49.0,30.47,SE,136,0.0,0.0,79,0.00,,,0.03,Wunderground v.1.15,2013-10-04 00:26:00,
2013-10-03 17:36:00,55.3,49.6,30.47,SE,136,0.0,0.0,81,0.00,,,0.03,Wunderground v.1.15,2013-10-04 00:36:00,
2013-10-03 17:45:00,55.1,50.0,30.47,SE,136,0.0,0.0,83,0.00,,,0.03,Wunderground v.1.15,2013-10-04 00:45:00,
2013-10-03 17:51:00,55.0,49.9,30.47,ESE,120,0.0,0.0,83,0.00,,,0.03,Wunderground v.1.15,2013-10-04 00:51:00,
2013-10-03 18:01:00,54.8,50.1,30.47,ESE,120,0.0,0.0,84,0.00,,,0.03,Wunderground v.1.15,2013-10-04 01:01:00,
2013-10-03 18:06:00,54.7,50.3,30.47,ESE,120,0.0,0.0,85,0.00,,,0.03,Wunderground v.1.15,2013-10-04 01:06:00,
2013-10-03 18:15:00,54.5,50.4,30.47,ESE,120,0.0,0.0,86,0.00,,,0.03,Wunderground v.1.15,2013-10-04 01:15:00,
2013-10-03 18:21:00,54.4,50.3,30.47,ESE,120,0.0,0.0,86,0.00,,,0.03,Wunderground v.1.15,2013-10-04 01:21:00,
2013-10-03 18:30:00,54.1,50.0,30.47,ESE,120,0.0,0.0,86,0.00,,,0.03,Wunderground v.1.15,2013-10-04 01:30:00,
2013-10-03 18:36:00,53.9,49.8,30.47,ESE,120,0.0,0.0,86,0.00,,,0.03,Wunderground v.1.15,2013-10-04 01:36:00,
2013-10-03 18:46:00,53.5,49.7,30.47,ESE,120,0.0,0.0,87,0.00,,,0.03,Wunderground v.1.15,2013-10-04 01:46:00,
2013-10-03 18:55:00,52.9,49.1,30.47,ESE,120,0.0,0.0,87,0.00,,,0.03,Wunderground v.1.15,2013-10-04 01:55:00,
2013-10-03 19:01:00,52.6,49.1,30.47,ESE,120,0.0,0.0,88,0.00,,,0.03,Wunderground v.1.15,2013-10-04 02:01:00,
2013-10-03 19:10:00,52.0,48.6,30.48,ESE,120,0.0,0.0,88,0.00,,,0.03,Wunderground v.1.15,2013-10-04 02:10:00,
2013-10-03 19:16:00,51.6,48.2,30.48,ESE,120,0.0,0.0,88,0.00,,,0.03,Wunderground v.1.15,2013-10-04 02:16:00,
2013-10-03 19:25:00,51.0,47.9,30.48,ESE,120,0.0,0.0,89,0.00,,,0.03,Wunderground v.1.15,2013-10-04 02:25:00,
2013-10-03 19:31:00,50.7,47.9,30.48,ESE,120,0.0,0.0,90,0.00,,,0.03,Wunderground v.1.15,2013-10-04 02:31:00,
2013-10-03 19:41:00,50.1,47.3,30.48,ESE,120,0.0,0.0,90,0.00,,,0.03,Wunderground v.1.15,2013-10-04 02:41:00,
2013-10-03 19:50:00,49.6,47.1,30.49,ESE,120,0.0,0.0,91,0.00,,,0.03,Wunderground v.1.15,2013-10-04 02:50:00,
2013-10-03 19:56:00,49.4,46.9,30.49,ESE,120,0.0,0.0,91,0.00,,,0.03,Wunderground v.1.15,2013-10-04 02:56:00,
2013-10-03 20:10:00,48.8,46.6,30.49,ESE,121,0.0,0.0,92,0.00,,,0.03,Wunderground v.1.15,2013-10-04 03:10:00,
2013-10-03 20:16:00,48.6,46.4,30.49,ESE,120,0.0,0.0,92,0.00,,,0.03,Wunderground v.1.15,2013-10-04 03:16:00,
2013-10-03 20:25:00,48.2,46.3,30.49,ESE,120,0.0,0.0,93,0.00,,,0.03,Wunderground v.1.15,2013-10-04 03:25:00,
2013-10-03 20:31:00,48.0,46.1,30.49,ESE,120,0.0,0.0,93,0.00,,,0.03,Wunderground v.1.15,2013-10-04 03:31:00,
2013-10-03 20:40:00,47.7,45.8,30.49,ESE,120,0.0,0.0,93,0.00,,,0.03,Wunderground v.1.15,2013-10-04 03:40:00,
2013-10-03 20:46:00,47.6,46.0,30.49,ESE,120,0.0,0.0,94,0.00,,,0.03,Wunderground v.1.15,2013-10-04 03:46:00,
2013-10-03 20:55:00,47.3,45.7,30.50,ESE,120,0.0,0.0,94,0.00,,,0.03,Wunderground v.1.15,2013-10-04 03:55:00,
2013-10-03 21:35:00,46.0,44.4,30.50,ESE,120,0.0,0.0,94,0.00,,,0.03,Wunderground v.1.15,2013-10-04 04:35:00,
2013-10-03 21:41:00,45.8,44.2,30.50,ESE,120,0.0,0.0,94,0.00,,,0.03,Wunderground v.1.15,2013-10-04 04:41:00,
2013-10-03 21:51:00,45.7,44.1,30.50,ESE,120,0.0,0.0,94,0.00,,,0.03,Wunderground v.1.15,2013-10-04 04:51:00,
2013-10-03 21:55:00,45.5,43.9,30.50,ESE,120,0.0,0.0,94,0.00,,,0.03,Wunderground v.1.15,2013-10-04 04:55:00,
2013-10-03 22:01:00,45.4,43.8,30.50,ESE,120,0.0,0.0,94,0.00,,,0.03,Wunderground v.1.15,2013-10-04 05:01:00,
2013-10-03 22:06:00,45.2,43.6,30.50,ESE,120,0.0,0.0,94,0.00,,,0.03,Wunderground v.1.15,2013-10-04 05:06:00,
2013-10-03 22:21:00,44.9,43.3,30.50,ESE,120,0.0,0.0,94,0.00,,,0.03,Wunderground v.1.15,2013-10-04 05:21:00,
2013-10-03 22:30:00,44.6,43.3,30.50,ESE,120,0.0,0.0,95,0.00,,,0.03,Wunderground v.1.15,2013-10-04 05:30:00,
2013-10-03 22:36:00,44.6,43.3,30.50,ESE,120,0.0,0.0,95,0.00,,,0.03,Wunderground v.1.15,2013-10-04 05:36:00,
2013-10-03 22:45:00,44.5,43.4,30.50,ESE,114,0.0,0.0,96,0.00,,,0.03,Wunderground v.1.15,2013-10-04 05:45:00,
2013-10-03 22:51:00,44.3,43.2,30.51,ESE,114,0.0,0.0,96,0.00,,,0.03,Wunderground v.1.15,2013-10-04 05:51:00,
2013-10-03 23:00:00,44.2,43.1,30.51,ESE,114,0.0,0.0,96,0.00,,,0.03,Wunderground v.1.15,2013-10-04 06:00:00,
2013-10-03 23:11:00,44.1,43.0,30.51,ESE,114,0.0,0.0,96,0.00,,,0.03,Wunderground v.1.15,2013-10-04 06:11:00,
2013-10-03 23:15:00,43.9,42.8,30.51,ESE,114,0.0,0.0,96,0.00,,,0.03,Wunderground v.1.15,2013-10-04 06:15:00,
2013-10-03 23:21:00,43.8,43.0,30.51,ESE,114,0.0,0.0,97,0.00,,,0.03,Wunderground v.1.15,2013-10-04 06:21:00,
2013-10-03 23:26:00,43.6,42.8,30.51,ESE,114,0.0,0.0,97,0.00,,,0.03,Wunderground v.1.15,2013-10-04 06:26:00,
2013-10-03 23:36:00,43.5,42.4,30.51,ESE,114,0.0,0.0,96,0.00,,,0.03,Wunderground v.1.15,2013-10-04 06:36:00,
2013-10-03 23:41:00,43.3,42.5,30.51,ESE,114,0.0,0.0,97,0.00,,,0.03,Wunderground v.1.15,2013-10-04 06:41:00,
2013-10-03 23:45:00,43.2,42.1,30.51,ESE,114,0.0,0.0,96,0.00,,,0.03,Wunderground v.1.15,2013-10-04 06:45:00,
2013-10-03 23:51:00,43.1,42.0,30.51,ESE,114,0.0,0.0,96,0.00,,,0.03,Wunderground v.1.15,2013-10-04 06:51:00,
2013-10-03 23:56:00,42.9,41.8,30.51,ESE,114,0.0,0.0,96,0.00,,,0.03,Wunderground v.1.15,2013-10-04 06:56:00,